Year,Month,Day,Hour,Minute,Value (Times are PST for temperature in C)
2007,08,24,00,00,14.30
2007,08,24,00,01,14.30
2007,08,24,00,02,14.30
2007,08,24,00,03,14.30
2007,08,24,00,04,14.30
2007,08,24,00,05,14.30
2007,08,24,00,06,14.30
2007,08,24,00,07,14.20
2007,08,24,00,08,14.20
2007,08,24,00,09,14.20
2007,08,24,00,10,14.20
2007,08,24,00,11,14.20
2007,08,24,00,12,14.20
2007,08,24,00,13,14.20
2007,08,24,00,14,14.20
2007,08,24,00,15,14.20
2007,08,24,00,16,14.10
2007,08,24,00,17,14.10
2007,08,24,00,18,14.10
2007,08,24,00,19,14.10
2007,08,24,00,20,14.10
2007,08,24,00,21,14.10
2007,08,24,00,22,14.10
2007,08,24,00,23,14.10
2007,08,24,00,24,14.10
2007,08,24,00,25,14.10
2007,08,24,00,26,14.00
2007,08,24,00,27,14.00
2007,08,24,00,28,14.00
2007,08,24,00,29,14.00
2007,08,24,00,30,13.90
2007,08,24,00,31,13.90
2007,08,24,00,32,13.90
2007,08,24,00,33,13.90
2007,08,24,00,34,13.90
2007,08,24,00,35,13.90
2007,08,24,00,36,13.90
2007,08,24,00,37,13.80
2007,08,24,00,38,13.80
2007,08,24,00,39,13.80
2007,08,24,00,40,13.80
2007,08,24,00,41,13.80
2007,08,24,00,42,13.80
2007,08,24,00,43,13.70
2007,08,24,00,44,13.70
2007,08,24,00,45,13.70
2007,08,24,00,46,13.70
2007,08,24,00,47,13.70
2007,08,24,00,48,13.70
2007,08,24,00,49,13.60
2007,08,24,00,50,13.60
2007,08,24,00,51,13.60
2007,08,24,00,52,13.60
2007,08,24,00,53,13.60
2007,08,24,00,54,13.60
2007,08,24,00,55,13.60
2007,08,24,00,56,13.60
2007,08,24,00,57,13.60
2007,08,24,00,58,13.50
2007,08,24,00,59,13.50
2007,08,24,01,00,13.50
2007,08,24,01,01,13.50
2007,08,24,01,02,13.50
2007,08,24,01,03,13.50
2007,08,24,01,04,13.50
2007,08,24,01,05,13.50
2007,08,24,01,06,13.50
2007,08,24,01,07,13.50
2007,08,24,01,08,13.50
2007,08,24,01,09,13.60
2007,08,24,01,10,13.60
2007,08,24,01,11,13.60
2007,08,24,01,12,13.60
2007,08,24,01,13,13.50
2007,08,24,01,14,13.50
2007,08,24,01,15,13.50
2007,08,24,01,16,13.50
2007,08,24,01,17,13.50
2007,08,24,01,18,13.50
2007,08,24,01,19,13.40
2007,08,24,01,20,13.40
2007,08,24,01,21,13.40
2007,08,24,01,22,13.40
2007,08,24,01,23,13.40
2007,08,24,01,24,13.40
2007,08,24,01,25,13.40
2007,08,24,01,26,13.40
2007,08,24,01,27,13.40
2007,08,24,01,28,13.40
2007,08,24,01,29,13.30
2007,08,24,01,30,13.30
2007,08,24,01,31,13.30
2007,08,24,01,32,13.30
2007,08,24,01,33,13.30
2007,08,24,01,34,13.30
2007,08,24,01,35,13.30
2007,08,24,01,36,13.30
2007,08,24,01,37,13.30
2007,08,24,01,38,13.30
2007,08,24,01,39,13.30
2007,08,24,01,40,13.30
2007,08,24,01,41,13.30
2007,08,24,01,42,13.20
2007,08,24,01,43,13.20
2007,08,24,01,44,13.20
2007,08,24,01,45,13.20
2007,08,24,01,46,13.20
2007,08,24,01,47,13.20
2007,08,24,01,48,13.20
2007,08,24,01,49,13.20
2007,08,24,01,50,13.10
2007,08,24,01,51,13.10
2007,08,24,01,52,13.10
2007,08,24,01,53,13.10
2007,08,24,01,54,13.10
2007,08,24,01,55,13.10
2007,08,24,01,56,13.00
2007,08,24,01,57,13.00
2007,08,24,01,58,13.00
2007,08,24,01,59,13.00
2007,08,24,02,00,12.90
2007,08,24,02,01,12.90
2007,08,24,02,02,12.90
2007,08,24,02,03,12.90
2007,08,24,02,04,12.90
2007,08,24,02,05,12.80
2007,08,24,02,06,12.80
2007,08,24,02,07,12.80
2007,08,24,02,08,12.80
2007,08,24,02,09,12.80
2007,08,24,02,10,12.80
2007,08,24,02,11,12.80
2007,08,24,02,12,12.70
2007,08,24,02,13,12.70
2007,08,24,02,14,12.70
2007,08,24,02,15,12.70
2007,08,24,02,16,12.70
2007,08,24,02,17,12.70
2007,08,24,02,18,12.60
2007,08,24,02,19,12.60
2007,08,24,02,20,12.60
2007,08,24,02,21,12.60
2007,08,24,02,22,12.50
2007,08,24,02,23,12.50
2007,08,24,02,24,12.50
2007,08,24,02,25,12.40
2007,08,24,02,26,12.40
2007,08,24,02,27,12.40
2007,08,24,02,28,12.30
2007,08,24,02,29,12.30
2007,08,24,02,30,12.30
2007,08,24,02,31,12.30
2007,08,24,02,32,12.30
2007,08,24,02,33,12.30
2007,08,24,02,34,12.30
2007,08,24,02,35,12.20
2007,08,24,02,36,12.20
2007,08,24,02,37,12.20
2007,08,24,02,38,12.20
2007,08,24,02,39,12.20
2007,08,24,02,40,12.20
2007,08,24,02,41,12.20
2007,08,24,02,42,12.10
2007,08,24,02,43,12.10
2007,08,24,02,44,12.10
2007,08,24,02,45,12.10
2007,08,24,02,46,12.10
2007,08,24,02,47,12.10
2007,08,24,02,48,12.10
2007,08,24,02,49,12.10
2007,08,24,02,50,12.00
2007,08,24,02,51,12.00
2007,08,24,02,52,12.00
2007,08,24,02,53,12.00
2007,08,24,02,54,12.00
2007,08,24,02,55,12.00
2007,08,24,02,56,12.00
2007,08,24,02,57,12.00
2007,08,24,02,58,11.90
2007,08,24,02,59,11.90
2007,08,24,03,00,11.90
2007,08,24,03,01,11.90
2007,08,24,03,02,11.90
2007,08,24,03,03,11.90
2007,08,24,03,04,11.90
2007,08,24,03,05,11.90
2007,08,24,03,06,11.90
2007,08,24,03,07,11.80
2007,08,24,03,08,11.80
2007,08,24,03,09,11.80
2007,08,24,03,10,11.80
2007,08,24,03,11,11.80
2007,08,24,03,12,11.80
2007,08,24,03,13,11.80
2007,08,24,03,14,11.80
2007,08,24,03,15,11.80
2007,08,24,03,16,11.80
2007,08,24,03,17,11.80
2007,08,24,03,18,11.80
2007,08,24,03,19,11.80
2007,08,24,03,20,11.80
2007,08,24,03,21,11.80
2007,08,24,03,22,11.80
2007,08,24,03,23,11.80
2007,08,24,03,24,11.80
2007,08,24,03,25,11.80
2007,08,24,03,26,11.80
2007,08,24,03,27,11.80
2007,08,24,03,28,11.80
2007,08,24,03,29,11.80
2007,08,24,03,30,11.70
2007,08,24,03,31,11.70
2007,08,24,03,32,11.70
2007,08,24,03,33,11.70
2007,08,24,03,34,11.70
2007,08,24,03,35,11.70
2007,08,24,03,36,11.70
2007,08,24,03,37,11.70
2007,08,24,03,38,11.70
2007,08,24,03,39,11.70
2007,08,24,03,40,11.70
2007,08,24,03,41,11.70
2007,08,24,03,42,11.70
2007,08,24,03,43,11.70
2007,08,24,03,44,11.70
2007,08,24,03,45,11.70
2007,08,24,03,46,11.70
2007,08,24,03,47,11.70
2007,08,24,03,48,11.70
2007,08,24,03,49,11.70
2007,08,24,03,50,11.70
2007,08,24,03,51,11.70
2007,08,24,03,52,11.70
2007,08,24,03,53,11.70
2007,08,24,03,54,11.70
2007,08,24,03,55,11.70
2007,08,24,03,56,11.70
2007,08,24,03,57,11.70
2007,08,24,03,58,11.70
2007,08,24,03,59,11.70
2007,08,24,04,00,11.70
2007,08,24,04,01,11.70
2007,08,24,04,02,11.70
2007,08,24,04,03,11.70
2007,08,24,04,04,11.70
2007,08,24,04,05,11.70
2007,08,24,04,06,11.70
2007,08,24,04,07,11.70
2007,08,24,04,08,11.70
2007,08,24,04,09,11.70
2007,08,24,04,10,11.70
2007,08,24,04,11,11.70
2007,08,24,04,12,11.70
2007,08,24,04,13,11.70
2007,08,24,04,14,11.60
2007,08,24,04,15,11.60
2007,08,24,04,16,11.60
2007,08,24,04,17,11.60
2007,08,24,04,18,11.60
2007,08,24,04,19,11.60
2007,08,24,04,20,11.60
2007,08,24,04,21,11.60
2007,08,24,04,22,11.60
2007,08,24,04,23,11.60
2007,08,24,04,24,11.60
2007,08,24,04,25,11.50
2007,08,24,04,26,11.50
2007,08,24,04,27,11.50
2007,08,24,04,28,11.40
2007,08,24,04,29,11.40
2007,08,24,04,30,11.40
2007,08,24,04,31,11.40
2007,08,24,04,32,11.40
2007,08,24,04,33,11.40
2007,08,24,04,34,11.40
2007,08,24,04,35,11.40
2007,08,24,04,36,11.40
2007,08,24,04,37,11.30
2007,08,24,04,38,11.30
2007,08,24,04,39,11.30
2007,08,24,04,40,11.30
2007,08,24,04,41,11.30
2007,08,24,04,42,11.30
2007,08,24,04,43,11.30
2007,08,24,04,44,11.30
2007,08,24,04,45,11.30
2007,08,24,04,46,11.30
2007,08,24,04,47,11.20
2007,08,24,04,48,11.20
2007,08,24,04,49,11.20
2007,08,24,04,50,11.20
2007,08,24,04,51,11.20
2007,08,24,04,52,11.20
2007,08,24,04,53,11.20
2007,08,24,04,54,11.10
2007,08,24,04,55,11.10
2007,08,24,04,56,11.10
2007,08,24,04,57,11.10
2007,08,24,04,58,11.10
2007,08,24,04,59,11.10
2007,08,24,05,00,11.00
2007,08,24,05,01,11.00
2007,08,24,05,02,11.00
2007,08,24,05,03,11.00
2007,08,24,05,04,10.90
2007,08,24,05,05,10.90
2007,08,24,05,06,10.90
2007,08,24,05,07,10.90
2007,08,24,05,08,10.90
2007,08,24,05,09,10.90
2007,08,24,05,10,10.90
2007,08,24,05,11,10.90
2007,08,24,05,12,10.90
2007,08,24,05,13,10.90
2007,08,24,05,14,10.90
2007,08,24,05,15,10.90
2007,08,24,05,16,10.90
2007,08,24,05,17,10.90
2007,08,24,05,18,10.90
2007,08,24,05,19,10.90
2007,08,24,05,20,10.80
2007,08,24,05,21,10.80
2007,08,24,05,22,10.80
2007,08,24,05,23,10.80
2007,08,24,05,24,10.80
2007,08,24,05,25,10.80
2007,08,24,05,26,10.80
2007,08,24,05,27,10.90
2007,08,24,05,28,10.90
2007,08,24,05,29,10.90
2007,08,24,05,30,10.90
2007,08,24,05,31,10.90
2007,08,24,05,32,10.90
2007,08,24,05,33,10.90
2007,08,24,05,34,10.80
2007,08,24,05,35,10.80
2007,08,24,05,36,10.80
2007,08,24,05,37,10.80
2007,08,24,05,38,10.90
2007,08,24,05,39,10.90
2007,08,24,05,40,10.90
2007,08,24,05,41,10.90
2007,08,24,05,42,10.90
2007,08,24,05,43,11.00
2007,08,24,05,44,11.00
2007,08,24,05,45,11.00
2007,08,24,05,46,11.10
2007,08,24,05,47,11.10
2007,08,24,05,48,11.10
2007,08,24,05,49,11.10
2007,08,24,05,50,11.10
2007,08,24,05,51,11.10
2007,08,24,05,52,11.10
2007,08,24,05,53,11.10
2007,08,24,05,54,11.10
2007,08,24,05,55,11.10
2007,08,24,05,56,11.10
2007,08,24,05,57,11.10
2007,08,24,05,58,11.10
2007,08,24,05,59,11.10
2007,08,24,06,00,11.20
2007,08,24,06,01,11.10
2007,08,24,06,02,11.10
2007,08,24,06,03,11.10
2007,08,24,06,04,11.10
2007,08,24,06,05,11.10
2007,08,24,06,06,11.10
2007,08,24,06,07,11.10
2007,08,24,06,08,11.10
2007,08,24,06,09,11.10
2007,08,24,06,10,11.10
2007,08,24,06,11,11.00
2007,08,24,06,12,11.00
2007,08,24,06,13,11.00
2007,08,24,06,14,11.00
2007,08,24,06,15,10.90
2007,08,24,06,16,10.90
2007,08,24,06,17,10.90
2007,08,24,06,18,10.90
2007,08,24,06,19,10.80
2007,08,24,06,20,10.80
2007,08,24,06,21,10.80
2007,08,24,06,22,10.80
2007,08,24,06,23,10.80
2007,08,24,06,24,10.70
2007,08,24,06,25,10.70
2007,08,24,06,26,10.70
2007,08,24,06,27,10.70
2007,08,24,06,28,10.70
2007,08,24,06,29,10.70
2007,08,24,06,30,10.70
2007,08,24,06,31,10.70
2007,08,24,06,32,10.60
2007,08,24,06,33,10.60
2007,08,24,06,34,10.60
2007,08,24,06,35,10.60
2007,08,24,06,36,10.60
2007,08,24,06,37,10.60
2007,08,24,06,38,10.60
2007,08,24,06,39,10.60
2007,08,24,06,40,10.70
2007,08,24,06,41,10.70
2007,08,24,06,42,10.70
2007,08,24,06,43,10.70
2007,08,24,06,44,10.70
2007,08,24,06,45,10.70
2007,08,24,06,46,10.60
2007,08,24,06,47,10.60
2007,08,24,06,48,10.60
2007,08,24,06,49,10.60
2007,08,24,06,50,10.60
2007,08,24,06,51,10.60
2007,08,24,06,52,10.70
2007,08,24,06,53,10.70
2007,08,24,06,54,10.70
2007,08,24,06,55,10.70
2007,08,24,06,56,10.70
2007,08,24,06,57,10.70
2007,08,24,06,58,10.80
2007,08,24,06,59,10.80
2007,08,24,07,00,10.80
2007,08,24,07,01,10.80
2007,08,24,07,02,10.80
2007,08,24,07,03,10.80
2007,08,24,07,04,10.80
2007,08,24,07,05,10.90
2007,08,24,07,06,11.00
2007,08,24,07,07,11.10
2007,08,24,07,08,11.20
2007,08,24,07,09,11.30
2007,08,24,07,10,11.40
2007,08,24,07,11,11.40
2007,08,24,07,12,11.50
2007,08,24,07,13,11.60
2007,08,24,07,14,11.60
2007,08,24,07,15,11.70
2007,08,24,07,16,11.80
2007,08,24,07,17,11.90
2007,08,24,07,18,12.00
2007,08,24,07,19,12.00
2007,08,24,07,20,12.10
2007,08,24,07,21,12.20
2007,08,24,07,22,12.20
2007,08,24,07,23,12.30
2007,08,24,07,24,12.40
2007,08,24,07,25,12.40
2007,08,24,07,26,12.50
2007,08,24,07,27,12.50
2007,08,24,07,28,12.60
2007,08,24,07,29,12.70
2007,08,24,07,30,12.80
2007,08,24,07,31,12.90
2007,08,24,07,32,13.00
2007,08,24,07,33,13.10
2007,08,24,07,34,13.10
2007,08,24,07,35,13.20
2007,08,24,07,36,13.30
2007,08,24,07,37,13.30
2007,08,24,07,38,13.30
2007,08,24,07,39,13.40
2007,08,24,07,40,13.40
2007,08,24,07,41,13.50
2007,08,24,07,42,13.60
2007,08,24,07,43,13.70
2007,08,24,07,44,13.80
2007,08,24,07,45,13.90
2007,08,24,07,46,13.90
2007,08,24,07,47,14.00
2007,08,24,07,48,14.10
2007,08,24,07,49,14.10
2007,08,24,07,50,14.20
2007,08,24,07,51,14.30
2007,08,24,07,52,14.40
2007,08,24,07,53,14.50
2007,08,24,07,54,14.50
2007,08,24,07,55,14.60
2007,08,24,07,56,14.70
2007,08,24,07,57,14.80
2007,08,24,07,58,14.80
2007,08,24,07,59,15.00
2007,08,24,08,00,15.00
2007,08,24,08,01,15.00
2007,08,24,08,02,15.00
2007,08,24,08,03,15.00
2007,08,24,08,04,15.00
2007,08,24,08,05,15.00
2007,08,24,08,06,15.10
2007,08,24,08,07,15.10
2007,08,24,08,08,15.10
2007,08,24,08,09,15.20
2007,08,24,08,10,15.20
2007,08,24,08,11,15.30
2007,08,24,08,12,15.30
2007,08,24,08,13,15.30
2007,08,24,08,14,15.30
2007,08,24,08,15,15.40
2007,08,24,08,16,15.40
2007,08,24,08,17,15.30
2007,08,24,08,18,15.40
2007,08,24,08,19,15.30
2007,08,24,08,20,15.30
2007,08,24,08,21,15.30
2007,08,24,08,22,15.30
2007,08,24,08,23,15.30
2007,08,24,08,24,15.30
2007,08,24,08,25,15.20
2007,08,24,08,26,15.20
2007,08,24,08,27,15.20
2007,08,24,08,28,15.20
2007,08,24,08,29,15.20
2007,08,24,08,30,15.20
2007,08,24,08,31,15.20
2007,08,24,08,32,15.20
2007,08,24,08,33,15.20
2007,08,24,08,34,15.10
2007,08,24,08,35,15.00
2007,08,24,08,36,15.00
2007,08,24,08,37,15.00
2007,08,24,08,38,15.00
2007,08,24,08,39,15.00
2007,08,24,08,40,15.00
2007,08,24,08,41,15.00
2007,08,24,08,42,15.00
2007,08,24,08,43,15.00
2007,08,24,08,44,15.10
2007,08,24,08,45,15.20
2007,08,24,08,46,15.20
2007,08,24,08,47,15.30
2007,08,24,08,48,15.30
2007,08,24,08,49,15.40
2007,08,24,08,50,15.40
2007,08,24,08,51,15.40
2007,08,24,08,52,15.50
2007,08,24,08,53,15.50
2007,08,24,08,54,15.50
2007,08,24,08,55,15.50
2007,08,24,08,56,15.50
2007,08,24,08,57,15.50
2007,08,24,08,58,15.40
2007,08,24,08,59,15.40
2007,08,24,09,00,15.50
2007,08,24,09,01,15.50
2007,08,24,09,02,15.60
2007,08,24,09,03,15.60
2007,08,24,09,04,15.70
2007,08,24,09,05,15.80
2007,08,24,09,06,15.90
2007,08,24,09,07,15.90
2007,08,24,09,08,16.00
2007,08,24,09,09,16.10
2007,08,24,09,10,16.20
2007,08,24,09,11,16.20
2007,08,24,09,12,16.20
2007,08,24,09,13,16.20
2007,08,24,09,14,16.30
2007,08,24,09,15,16.30
2007,08,24,09,16,16.40
2007,08,24,09,17,16.40
2007,08,24,09,18,16.50
2007,08,24,09,19,16.60
2007,08,24,09,20,16.60
2007,08,24,09,21,16.70
2007,08,24,09,22,16.80
2007,08,24,09,23,16.80
2007,08,24,09,24,16.90
2007,08,24,09,25,16.90
2007,08,24,09,26,16.90
2007,08,24,09,27,16.90
2007,08,24,09,28,16.90
2007,08,24,09,29,16.80
2007,08,24,09,30,16.70
2007,08,24,09,31,16.70
2007,08,24,09,32,16.70
2007,08,24,09,33,16.70
2007,08,24,09,34,16.70
2007,08,24,09,35,16.70
2007,08,24,09,36,16.70
2007,08,24,09,37,16.70
2007,08,24,09,38,16.80
2007,08,24,09,39,16.80
2007,08,24,09,40,16.80
2007,08,24,09,41,16.80
2007,08,24,09,42,16.80
2007,08,24,09,43,16.80
2007,08,24,09,44,16.80
2007,08,24,09,45,16.80
2007,08,24,09,46,16.80
2007,08,24,09,47,16.80
2007,08,24,09,48,16.80
2007,08,24,09,49,16.80
2007,08,24,09,50,16.90
2007,08,24,09,51,16.90
2007,08,24,09,52,17.00
2007,08,24,09,53,17.10
2007,08,24,09,54,17.10
2007,08,24,09,55,17.20
2007,08,24,09,56,17.20
2007,08,24,09,57,17.10
2007,08,24,09,58,17.00
2007,08,24,09,59,16.90
2007,08,24,10,00,16.80
2007,08,24,10,01,16.70
2007,08,24,10,02,16.70
2007,08,24,10,03,16.70
2007,08,24,10,04,16.70
2007,08,24,10,05,16.70
2007,08,24,10,06,16.80
2007,08,24,10,07,16.80
2007,08,24,10,08,16.80
2007,08,24,10,09,16.70
2007,08,24,10,10,16.60
2007,08,24,10,11,16.40
2007,08,24,10,12,16.30
2007,08,24,10,13,16.20
2007,08,24,10,14,16.10
2007,08,24,10,15,16.00
2007,08,24,10,16,15.90
2007,08,24,10,17,15.80
2007,08,24,10,18,15.80
2007,08,24,10,19,15.80
2007,08,24,10,20,15.80
2007,08,24,10,21,15.80
2007,08,24,10,22,15.90
2007,08,24,10,23,15.90
2007,08,24,10,24,15.90
2007,08,24,10,25,16.00
2007,08,24,10,26,16.10
2007,08,24,10,27,16.10
2007,08,24,10,28,16.30
2007,08,24,10,29,16.40
2007,08,24,10,30,16.60
2007,08,24,10,31,16.70
2007,08,24,10,32,16.70
2007,08,24,10,33,16.70
2007,08,24,10,34,16.70
2007,08,24,10,35,16.70
2007,08,24,10,36,16.70
2007,08,24,10,37,16.70
2007,08,24,10,38,16.60
2007,08,24,10,39,16.60
2007,08,24,10,40,16.60
2007,08,24,10,41,16.60
2007,08,24,10,42,16.50
2007,08,24,10,43,16.40
2007,08,24,10,44,16.40
2007,08,24,10,45,16.40
2007,08,24,10,46,16.40
2007,08,24,10,47,16.50
2007,08,24,10,48,16.50
2007,08,24,10,49,16.60
2007,08,24,10,50,16.60
2007,08,24,10,51,16.60
2007,08,24,10,52,16.50
2007,08,24,10,53,16.60
2007,08,24,10,54,16.60
2007,08,24,10,55,16.70
2007,08,24,10,56,16.80
2007,08,24,10,57,16.80
2007,08,24,10,58,16.90
2007,08,24,10,59,16.90
2007,08,24,11,00,17.10
2007,08,24,11,01,17.10
2007,08,24,11,02,17.20
2007,08,24,11,03,17.20
2007,08,24,11,04,17.30
2007,08,24,11,05,17.30
2007,08,24,11,06,17.40
2007,08,24,11,07,17.50
2007,08,24,11,08,17.70
2007,08,24,11,09,17.80
2007,08,24,11,10,17.90
2007,08,24,11,11,17.90
2007,08,24,11,12,18.00
2007,08,24,11,13,18.10
2007,08,24,11,14,18.10
2007,08,24,11,15,18.20
2007,08,24,11,16,18.20
2007,08,24,11,17,18.30
2007,08,24,11,18,18.30
2007,08,24,11,19,18.30
2007,08,24,11,20,18.30
2007,08,24,11,21,18.20
2007,08,24,11,22,18.20
2007,08,24,11,23,18.30
2007,08,24,11,24,18.30
2007,08,24,11,25,18.30
2007,08,24,11,26,18.30
2007,08,24,11,27,18.30
2007,08,24,11,28,18.30
2007,08,24,11,29,18.40
2007,08,24,11,30,18.40
2007,08,24,11,31,18.40
2007,08,24,11,32,18.40
2007,08,24,11,33,18.30
2007,08,24,11,34,18.20
2007,08,24,11,35,18.10
2007,08,24,11,36,18.10
2007,08,24,11,37,18.00
2007,08,24,11,38,18.00
2007,08,24,11,39,18.00
2007,08,24,11,40,18.10
2007,08,24,11,41,18.20
2007,08,24,11,42,18.20
2007,08,24,11,43,18.30
2007,08,24,11,44,18.40
2007,08,24,11,45,18.40
2007,08,24,11,46,18.50
2007,08,24,11,47,18.60
2007,08,24,11,48,18.60
2007,08,24,11,49,18.70
2007,08,24,11,50,18.80
2007,08,24,11,51,18.90
2007,08,24,11,52,18.90
2007,08,24,11,53,18.90
2007,08,24,11,54,19.00
2007,08,24,11,55,19.00
2007,08,24,11,56,19.10
2007,08,24,11,57,19.10
2007,08,24,11,58,19.00
2007,08,24,11,59,18.90
2007,08,24,12,00,18.80
2007,08,24,12,01,18.80
2007,08,24,12,02,18.70
2007,08,24,12,03,18.60
2007,08,24,12,04,18.60
2007,08,24,12,05,18.50
2007,08,24,12,06,18.50
2007,08,24,12,07,18.60
2007,08,24,12,08,18.60
2007,08,24,12,09,18.60
2007,08,24,12,10,18.50
2007,08,24,12,11,18.40
2007,08,24,12,12,18.20
2007,08,24,12,13,18.10
2007,08,24,12,14,18.00
2007,08,24,12,15,17.90
2007,08,24,12,16,17.90
2007,08,24,12,17,17.90
2007,08,24,12,18,17.80
2007,08,24,12,19,17.80
2007,08,24,12,20,17.90
2007,08,24,12,21,17.90
2007,08,24,12,22,17.90
2007,08,24,12,23,17.80
2007,08,24,12,24,17.80
2007,08,24,12,25,17.80
2007,08,24,12,26,17.80
2007,08,24,12,27,17.80
2007,08,24,12,28,17.80
2007,08,24,12,29,17.80
2007,08,24,12,30,17.70
2007,08,24,12,31,17.70
2007,08,24,12,32,17.70
2007,08,24,12,33,17.80
2007,08,24,12,34,17.80
2007,08,24,12,35,17.80
2007,08,24,12,36,17.80
2007,08,24,12,37,17.80
2007,08,24,12,38,17.80
2007,08,24,12,39,17.70
2007,08,24,12,40,17.80
2007,08,24,12,41,17.80
2007,08,24,12,42,17.80
2007,08,24,12,43,17.90
2007,08,24,12,44,17.90
2007,08,24,12,45,18.00
2007,08,24,12,46,18.00
2007,08,24,12,47,18.10
2007,08,24,12,48,18.20
2007,08,24,12,49,18.20
2007,08,24,12,50,18.20
2007,08,24,12,51,18.20
2007,08,24,12,52,18.20
2007,08,24,12,53,18.30
2007,08,24,12,54,18.40
2007,08,24,12,55,18.60
2007,08,24,12,56,18.80
2007,08,24,12,57,19.00
2007,08,24,12,58,19.10
2007,08,24,12,59,19.30
2007,08,24,13,00,19.40
2007,08,24,13,01,19.50
2007,08,24,13,02,19.60
2007,08,24,13,03,19.50
2007,08,24,13,04,19.50
2007,08,24,13,05,19.40
2007,08,24,13,06,19.40
2007,08,24,13,07,19.50
2007,08,24,13,08,19.60
2007,08,24,13,09,19.70
2007,08,24,13,10,19.70
2007,08,24,13,11,19.70
2007,08,24,13,12,19.70
2007,08,24,13,13,19.60
2007,08,24,13,14,19.50
2007,08,24,13,15,19.30
2007,08,24,13,16,19.00
2007,08,24,13,17,19.00
2007,08,24,13,18,19.00
2007,08,24,13,19,19.00
2007,08,24,13,20,19.10
2007,08,24,13,21,19.10
2007,08,24,13,22,19.10
2007,08,24,13,23,19.00
2007,08,24,13,24,18.90
2007,08,24,13,25,18.80
2007,08,24,13,26,18.60
2007,08,24,13,27,18.40
2007,08,24,13,28,18.30
2007,08,24,13,29,18.20
2007,08,24,13,30,18.10
2007,08,24,13,31,18.10
2007,08,24,13,32,18.00
2007,08,24,13,33,18.00
2007,08,24,13,34,18.10
2007,08,24,13,35,18.10
2007,08,24,13,36,18.10
2007,08,24,13,37,18.10
2007,08,24,13,38,18.20
2007,08,24,13,39,18.20
2007,08,24,13,40,18.30
2007,08,24,13,41,18.30
2007,08,24,13,42,18.30
2007,08,24,13,43,18.30
2007,08,24,13,44,18.20
2007,08,24,13,45,18.20
2007,08,24,13,46,18.20
2007,08,24,13,47,18.20
2007,08,24,13,48,18.20
2007,08,24,13,49,18.20
2007,08,24,13,50,18.30
2007,08,24,13,51,18.30
2007,08,24,13,52,18.40
2007,08,24,13,53,18.40
2007,08,24,13,54,18.50
2007,08,24,13,55,18.50
2007,08,24,13,56,18.60
2007,08,24,13,57,18.60
2007,08,24,13,58,18.60
2007,08,24,13,59,18.70
2007,08,24,14,00,18.70
2007,08,24,14,01,18.70
2007,08,24,14,02,18.60
2007,08,24,14,03,18.50
2007,08,24,14,04,18.40
2007,08,24,14,05,18.40
2007,08,24,14,06,18.50
2007,08,24,14,07,18.60
2007,08,24,14,08,18.80
2007,08,24,14,09,18.90
2007,08,24,14,10,19.00
2007,08,24,14,11,19.00
2007,08,24,14,12,19.00
2007,08,24,14,13,19.00
2007,08,24,14,14,19.00
2007,08,24,14,15,19.00
2007,08,24,14,16,18.90
2007,08,24,14,17,18.80
2007,08,24,14,18,18.50
2007,08,24,14,19,18.30
2007,08,24,14,20,18.10
2007,08,24,14,21,17.90
2007,08,24,14,22,17.70
2007,08,24,14,23,17.50
2007,08,24,14,24,17.40
2007,08,24,14,25,17.30
2007,08,24,14,26,17.30
2007,08,24,14,27,17.30
2007,08,24,14,28,17.20
2007,08,24,14,29,17.30
2007,08,24,14,30,17.30
2007,08,24,14,31,17.20
2007,08,24,14,32,17.20
2007,08,24,14,33,17.10
2007,08,24,14,34,17.10
2007,08,24,14,35,17.10
2007,08,24,14,36,17.00
2007,08,24,14,37,17.00
2007,08,24,14,38,17.00
2007,08,24,14,39,16.90
2007,08,24,14,40,16.90
2007,08,24,14,41,16.90
2007,08,24,14,42,16.80
2007,08,24,14,43,16.90
2007,08,24,14,44,16.80
2007,08,24,14,45,16.80
2007,08,24,14,46,16.80
2007,08,24,14,47,16.80
2007,08,24,14,48,16.70
2007,08,24,14,49,16.80
2007,08,24,14,50,16.70
2007,08,24,14,51,16.60
2007,08,24,14,52,16.60
2007,08,24,14,53,16.60
2007,08,24,14,54,16.60
2007,08,24,14,55,16.70
2007,08,24,14,56,16.70
2007,08,24,14,57,16.50
2007,08,24,14,58,16.40
2007,08,24,14,59,16.50
2007,08,24,15,00,16.50
2007,08,24,15,01,16.40
2007,08,24,15,02,16.40
2007,08,24,15,03,16.40
2007,08,24,15,04,16.30
2007,08,24,15,05,16.20
2007,08,24,15,06,16.20
2007,08,24,15,07,16.20
2007,08,24,15,08,16.20
2007,08,24,15,09,16.20
2007,08,24,15,10,16.20
2007,08,24,15,11,16.10
2007,08,24,15,12,16.10
2007,08,24,15,13,16.00
2007,08,24,15,14,15.90
2007,08,24,15,15,15.80
2007,08,24,15,16,15.70
2007,08,24,15,17,15.70
2007,08,24,15,18,15.70
2007,08,24,15,19,15.70
2007,08,24,15,20,15.70
2007,08,24,15,21,15.80
2007,08,24,15,22,15.90
2007,08,24,15,23,16.10
2007,08,24,15,24,16.20
2007,08,24,15,25,16.30
2007,08,24,15,26,16.40
2007,08,24,15,27,16.30
2007,08,24,15,28,16.30
2007,08,24,15,29,16.20
2007,08,24,15,30,16.20
2007,08,24,15,31,16.20
2007,08,24,15,32,16.20
2007,08,24,15,33,16.20
2007,08,24,15,34,16.20
2007,08,24,15,35,16.10
2007,08,24,15,36,16.10
2007,08,24,15,37,16.00
2007,08,24,15,38,16.00
2007,08,24,15,39,16.00
2007,08,24,15,40,15.90
2007,08,24,15,41,16.00
2007,08,24,15,42,16.00
2007,08,24,15,43,16.00
2007,08,24,15,44,16.10
2007,08,24,15,45,16.10
2007,08,24,15,46,16.20
2007,08,24,15,47,16.20
2007,08,24,15,48,16.40
2007,08,24,15,49,16.60
2007,08,24,15,50,16.80
2007,08,24,15,51,17.10
2007,08,24,15,52,17.40
2007,08,24,15,53,17.60
2007,08,24,15,54,17.80
2007,08,24,15,55,17.90
2007,08,24,15,56,17.90
2007,08,24,15,57,17.90
2007,08,24,15,58,18.00
2007,08,24,15,59,18.00
2007,08,24,16,00,18.00
2007,08,24,16,01,17.90
2007,08,24,16,02,17.80
2007,08,24,16,03,17.70
2007,08,24,16,04,17.70
2007,08,24,16,05,17.60
2007,08,24,16,06,17.50
2007,08,24,16,07,17.30
2007,08,24,16,08,17.10
2007,08,24,16,09,17.00
2007,08,24,16,10,16.80
2007,08,24,16,11,16.70
2007,08,24,16,12,16.60
2007,08,24,16,13,16.50
2007,08,24,16,14,16.30
2007,08,24,16,15,16.20
2007,08,24,16,16,16.10
2007,08,24,16,17,16.10
2007,08,24,16,18,16.20
2007,08,24,16,19,16.30
2007,08,24,16,20,16.50
2007,08,24,16,21,16.60
2007,08,24,16,22,16.80
2007,08,24,16,23,16.90
2007,08,24,16,24,17.10
2007,08,24,16,25,17.20
2007,08,24,16,26,17.20
2007,08,24,16,27,17.40
2007,08,24,16,28,17.40
2007,08,24,16,29,17.40
2007,08,24,16,30,17.50
2007,08,24,16,31,17.60
2007,08,24,16,32,17.60
2007,08,24,16,33,17.60
2007,08,24,16,34,17.70
2007,08,24,16,35,17.70
2007,08,24,16,36,17.60
2007,08,24,16,37,17.60
2007,08,24,16,38,17.50
2007,08,24,16,39,17.50
2007,08,24,16,40,17.40
2007,08,24,16,41,17.40
2007,08,24,16,42,17.50
2007,08,24,16,43,17.60
2007,08,24,16,44,17.60
2007,08,24,16,45,17.70
2007,08,24,16,46,17.80
2007,08,24,16,47,17.90
2007,08,24,16,48,18.00
2007,08,24,16,49,18.10
2007,08,24,16,50,18.10
2007,08,24,16,51,18.20
2007,08,24,16,52,18.20
2007,08,24,16,53,18.30
2007,08,24,16,54,18.40
2007,08,24,16,55,18.40
2007,08,24,16,56,18.50
2007,08,24,16,57,18.60
2007,08,24,16,58,18.80
2007,08,24,16,59,18.90
2007,08,24,17,00,19.10
2007,08,24,17,01,19.20
2007,08,24,17,02,19.20
2007,08,24,17,03,19.30
2007,08,24,17,04,19.30
2007,08,24,17,05,19.30
2007,08,24,17,06,19.30
2007,08,24,17,07,19.30
2007,08,24,17,08,19.20
2007,08,24,17,09,19.00
2007,08,24,17,10,18.90
2007,08,24,17,11,18.90
2007,08,24,17,12,18.80
2007,08,24,17,13,18.80
2007,08,24,17,14,18.80
2007,08,24,17,15,18.80
2007,08,24,17,16,18.80
2007,08,24,17,17,18.80
2007,08,24,17,18,18.80
2007,08,24,17,19,18.70